SCP
-0 0 0 0 0 0 0 0 0 0 0 0 0 0 -0 -0 -0 -0 -0 -0 0 0 0 0 0 0 0 0 0 0 0 0 0 0 0 0 0 0 0 0 0 0 0 0 0 0 0
-0 0 0 0 0 0 0 0 -0 -0 -0 -0 0 -0 -0 -0 -0 -0 0 0 0 0 0 0 0 0 0 0 0 0 0 0 0 0 0 0 0 0 0 0 0 0 0 0 0 0 0
0 0 0 0 0 0 -0 -0 -0 -0 -0 0 -0 -0 -0 -0 -0 -0 -0 0 0 0 0 0 0 0 0 0 0 0 0 0 0 0 0 0 0 0 0 0 0 0 0 0 0 0 0
0 0 0 0 0 -0 -0 -0 -0 -0 -0 0 -0 -0 -0 -0 -0 0 0 0 0 0 0 0 0 0 0 0 0 0 0 0 0 0 0 0 0 0 0 0 0 0 0 0 0 0 0
0 0 -0 -0 -0 -0 -0 -0 -0 -0 -0 0 -0 -0 -0 -0 0 0 0 0 0 0 0 0 0 0 0 0 0 0 0 0 0 0 0 0 0 0 0 0 0 0 0 0 0 0 0
-0 -0 -0 -0 -0 -0 -0 -0 -0 -0 -0 -0 -0 -0 -0 0 0 0 0 0 0 0 0 0 0 0 0 0 0 0 0 0 0 0 0 0 0 0 0 0 0 0 0 0 0 0 0
-0 -0 -0 -0 -0 -0 -0 -0 -0 0 0 -0 0 0 0 0 0 0 0 0 0 0 0 0 0 0 0 0 0 0 0 0 0 0 0 0 0 0 0 0 0 0 0 0 0 0 0
-0 -0 -0 -0 -0 -0 -0 -0 0 0 0 0 0 0 0 0 0 0 0 0 0 0 0 0 0 0 0 0 0 0 0 0 0 0 0 0 0 0 0 0 0 0 0 0 0 0 0
-0 -0 -0 -0 -0 -0 -0 -0 0 0 0 0 0 0 0 0 -0 0 0 0 0 0 0 0 0 0 0 0 0 0 0 0 0 0 0 0 0 0 0 0 0 0 0 0 0 0 0
-0 -0 -0 -0 -0 -0 -0 0 0 0 0 0 0 0 0 0 0 0 0 0 0 0 0 0 0 0 0 0 0 0 0 0 0 0 0 0 0 0 0 0 0 0 0 0 0 0 0
-0 -0 -0 -0 -0 0 0 0 0 0 0 0 0 0 0 0 0 0 0 0 0 0 0 0 0 0 0 0 0 0 0 0 0 0 0 0 0 0 0 0 0 0 0 0 0 0 0
-0 -0 0 0 0 0 0 0 0 0 0 0 0 0 0 0 0 0 0 0 0 0 0 0 0 0 0 0 0 0 0 0 0 0 0 0 0 0 0 0 0 0 0 0 0 0 0
0 0 0 0 0 0 0 0 0 0 0 0 0 0 0 0 0 0 0 0 0 0 0 0 0 0 0 0 0 0 0 0 0 0 0 0 0 0 0 0 0 0 0 0 0 0 0
0 0 0 0 0 0 0 0 0 0 0 0 0 -0 0 0 0 0 0 0 0 0 0 0 0 0 0 0 0 0 0 0 0 0 0 0 0 0 0 0 0 0 0 0 0 0 0
0 0 0 0 0 0 0 0 0 0 0 0 0 0 0 0 0 0 0 0 0 0 0 0 0 0 0 0 0 0 0 0 0 0 0 0 0 0 0 0 0 0 0 0 0 0 0
0 0 0 0 0 0 0 0 0 0 0 0 0 0 0 0 0 0 0 0 0 0 0 0 0 0 0 0 0 0 0 0 0 0 0 0 0 0 0 0 0 0 0 0 0 0 0
0 0 0 0 0 0 0 0 0 0 0 0 0 0 0 0 0 0 0 0 0 0 0 0 0 0 0 0 0 0 0 0 0 0 0 0 0 0 0 0 0 0 0 0 0 0 0
0 0 0 0 0 0 0 0 0 0 0 0 0 0 0 0 0 0 0 0 0 0 0 0 0 0 0 0 0 0 0 0 0 0 0 0 0 0 0 0 0 0 0 0 0 0 0
0 0 0 0 0 0 0 0 0 0 0 0 0 0 0 0 0 0 0 0 0 0 0 0 0 0 0 0 0 0 0 0 0 0 0 0 0 0 0 0 0 0 0 0 0 0 0
0 0 0 0 0 0 0 0 0 0 0 0 0 0 0 0 0 0 0 0 0 0 0 0 0 0 0 0 0 0 0 0 0 0 0 0 0 0 0 0 0 -0 -0 -0 0 0 0
0 0 0 0 0 0 0 0 0 0 0 0 0 0 0 0 0 0 0 0 0 0 0 0 0 0 0 0 0 0 0 0 0 0 0 0 0 0 0 0 0 0 0 0 -0 0 0
0 0 0 0 0 0 0 0 0 0 0 0 0 0 0 0 0 0 0 0 0 0 0 0 0 0 0 0 0 0 0 0 0 0 0 0 0 0 0 0 0 0 0 0 0 0 0
0 0 0 0 0 0 0 0 0 0 0 0 -0 0 0 0 0 0 0 0 0 0 0 0 0 0 0 0 0 0 0 0 0 0 0 0 0 0 0 0 0 0 0 0 0 0 0
0 0 0 0 0 0 0 0 0 0 0 0 -0 0 0 0 0 0 0 0 0 0 0 0 0 0 0 0 0 0 0 0 0 0 0 0 0 0 0 0 0 0 0 0 0 0 0
0 0 0 0 0 0 0 0 0 0 0 0 0 0 0 0 0 0 0 0 0 0 0 0 0 0 0 0 0 0 0 0 0 0 0 0 0 0 0 0 0 0 0 0 0 0 0
0 0 0 0 0 0 0 0 0 0 0 0 0 0 0 0 0 0 0 0 0 0 0 0 0 0 0 0 0 0 0 0 0 0 0 0 0 0 0 0 0 0 0 0 -0 0 0
0 0 0 0 0 0 0 0 0 0 0 0 0 0 0 0 0 0 0 0 0 0 0 0 0 0 0 0 0 0 0 0 0 0 0 0 0 0 0 0 -0 -0 -0 -0 -0 -0 -0
0 0 0 0 0 0 0 0 0 0 0 0 0 0 0 0 0 0 0 0 0 0 0 0 0 0 0 0 0 0 0 0 0 0 0 0 0 0 0 0 0 0 -0 -0 0 -0 -0
0 0 0 0 0 0 0 0 0 0 0 0 0 0 0 0 0 0 0 0 0 0 0 0 0 0 0 0 0 0 0 0 0 -0 0 0 0 0 0 0 0 0 0 0 0 0 -0
Wind_Speed_500mb
23 24 26 26 26 28 30 32 33 35 37 38 40 40 41 42 42 42 42 42 44 44 44 42 39 34 25 14 22 22 16 19 19 14 8 3 6 5 5 7 18 13 8 25 38 42 48
22 24 25 26 28 30 32 34 36 37 39 40 42 44 45 46 47 46 46 45 43 44 45 44 42 33 19 9 24 18 20 23 22 15 7 5 5 9 12 11 5 10 26 31 41 51 28
23 24 26 28 30 32 33 36 39 41 41 43 45 47 48 49 50 50 49 47 46 46 44 43 42 24 26 33 26 20 20 19 19 15 11 13 20 12 11 10 17 21 19 18 24 18 16
22 25 28 30 32 35 37 39 41 43 46 47 49 51 51 52 53 51 50 47 46 45 44 40 27 16 15 15 18 29 22 17 18 20 19 19 19 15 12 15 15 7 3 8 10 11 7
25 27 29 31 34 35 37 40 43 46 48 51 53 54 55 54 52 51 47 45 39 36 35 18 7 10 17 8 13 16 20 19 13 12 13 7 10 10 8 4 7 7 7 12 15 14 10
24 26 29 31 33 35 39 43 45 48 51 53 55 56 55 54 52 51 43 35 20 18 14 6 7 11 7 9 17 13 15 20 17 9 10 12 12 4 4 6 8 10 9 11 16 3 5
25 27 28 30 34 38 41 45 48 51 54 56 58 58 55 51 49 40 38 20 11 5 12 15 17 24 47 23 13 9 15 25 21 13 9 15 6 17 20 24 13 12 10 13 15 20 11
24 26 28 32 35 39 43 46 49 52 55 57 59 59 55 50 36 35 29 16 14 10 26 19 8 13 14 13 6 11 21 14 14 12 11 7 18 30 19 23 19 12 13 20 14 18 9
22 25 30 33 38 41 44 47 50 53 55 59 61 60 54 47 23 36 29 27 12 4 8 17 4 3 9 6 4 20 22 12 12 12 17 18 21 4 14 15 16 13 13 11 17 9 8
23 27 30 35 38 41 43 46 50 53 57 60 62 60 55 45 17 26 17 25 13 5 8 5 4 5 9 5 3 8 22 10 7 16 14 17 34 31 23 16 13 13 16 19 7 7 5
25 27 31 34 37 41 46 50 52 55 58 60 60 56 45 42 25 34 34 22 11 3 9 10 2 4 11 7 9 6 15 10 13 14 8 16 8 9 13 13 9 13 1 6 5 6 5
22 26 29 34 38 43 48 52 56 59 60 59 58 51 39 38 31 35 30 17 5 11 9 9 8 18 18 15 7 7 6 17 18 7 11 23 13 9 14 7 7 9 8 12 5 7 3
21 25 30 35 41 47 51 54 56 59 61 57 54 44 34 41 41 32 25 7 10 9 12 16 12 18 15 10 7 8 7 2 6 10 7 11 10 1 5 5 4 4 5 6 5 1 12
21 25 30 36 41 46 51 55 58 59 60 56 52 35 26 43 33 27 16 8 7 6 9 10 13 27 7 20 12 16 14 7 20 12 7 6 14 2 3 6 6 10 10 6 7 6 6
20 26 31 37 42 48 54 58 60 60 58 55 47 24 23 44 28 20 6 10 2 7 8 14 20 9 10 14 11 15 7 11 11 18 7 10 10 20 26 7 3 7 5 7 6 7 2
22 26 31 36 42 49 55 59 62 61 58 55 39 17 16 41 23 15 9 10 8 7 9 6 5 10 8 15 14 17 6 11 14 17 9 9 12 13 13 12 12 10 3 7 3 6 9
22 28 33 38 43 48 54 59 63 64 59 52 26 11 22 27 15 14 7 5 6 19 21 7 7 10 8 10 10 8 9 6 10 16 19 12 5 11 16 6 10 7 7 6 3 4 7
24 28 33 39 45 50 54 58 62 64 60 51 21 7 36 23 15 10 5 3 5 14 25 10 9 7 7 13 10 7 9 5 23 18 9 5 8 9 17 33 35 26 16 5 4 9 4
22 28 34 39 46 53 56 58 59 58 55 45 17 13 25 25 8 7 12 5 5 10 8 9 8 8 10 7 10 8 12 8 41 19 10 13 6 9 16 5 14 10 12 21 17 0 7
22 27 33 40 46 53 57 58 59 55 47 29 13 8 14 27 18 6 9 7 9 10 3 16 10 7 9 7 10 15 16 14 53 23 34 19 7 11 8 10 18 22 37 26 12 7 13
22 29 37 42 47 52 55 57 56 54 47 20 16 9 11 7 10 10 6 9 8 14 17 19 4 10 11 7 19 6 26 22 22 31 16 6 9 7 19 24 25 34 40 40 23 23 15
24 30 35 40 46 50 52 52 52 52 47 50 12 16 18 11 15 11 13 11 11 9 5 10 7 16 12 11 9 22 21 12 12 10 8 13 10 20 29 23 26 29 24 30 28 27 22
25 29 34 40 43 47 48 50 42 49 53 31 28 21 9 10 19 8 5 7 9 18 14 11 22 19 11 19 28 42 50 56 44 23 29 11 5 5 9 12 24 9 9 19 15 27 20
23 28 33 36 37 39 42 43 35 36 43 32 24 18 11 6 11 8 15 22 13 20 17 33 34 10 20 40 40 46 58 55 52 40 36 14 7 9 11 15 7 5 8 19 17 19 22
23 26 29 33 33 33 36 39 40 27 33 35 24 12 6 4 12 13 28 18 34 40 25 35 21 21 31 27 8 12 10 11 16 12 12 32 11 8 7 9 18 19 18 21 17 33 14
21 24 27 28 27 30 31 33 34 35 32 32 27 12 7 6 7 22 19 27 9 8 12 13 41 34 40 5 7 6 9 13 10 13 13 20 9 4 9 13 19 2 12 32 14 23 19
18 21 24 25 28 29 30 31 29 32 36 32 20 26 21 11 14 16 13 12 15 15 7 17 14 32 18 3 9 7 8 7 8 11 10 12 11 9 19 16 14 15 20 35 18 14 46
15 20 24 27 27 30 32 29 30 32 33 31 31 23 25 18 41 11 22 39 48 23 6 21 16 8 6 2 3 5 3 3 5 10 8 9 7 8 7 11 21 14 22 4 24 72 58
17 20 22 26 30 35 30 28 28 34 31 29 35 31 30 29 47 46 36 31 28 38 42 17 17 17 9 1 3 5 10 6 7 12 8 7 8 7 8 13 36 56 40 42 51 52 47
Wind_Direction_500mb
29 25 23 20 15 9 5 3 360 357 354 351 348 343 338 335 331 327 324 322 320 319 317 317 319 318 307 283 264 283 268 242 248 248 241 220 275 272 256 316 317 247 262 277 289 291 293
27 22 17 13 10 7 4 1 358 354 351 347 344 340 337 333 329 326 323 321 318 316 314 314 314 312 287 233 273 265 253 249 239 228 225 247 289 284 289 256 239 271 291 283 285 279 263
21 15 11 9 7 3 0 359 357 353 347 346 343 339 335 331 327 324 321 318 312 310 308 308 308 298 270 277 257 264 264 240 228 225 207 247 244 255 313 287 271 294 297 301 265 244 220
16 11 9 7 5 2 0 358 355 351 350 346 343 341 337 333 329 326 324 315 313 307 304 304 301 276 258 280 258 274 272 227 228 226 225 228 246 245 228 283 314 262 197 309 283 188 202
15 10 6 5 5 2 359 357 354 352 349 347 345 341 338 335 333 329 328 320 318 306 303 314 289 275 275 280 260 276 257 224 257 241 245 260 263 237 243 192 319 247 238 216 301 193 156
11 6 6 5 3 0 358 356 354 352 350 348 346 344 342 339 337 335 336 335 333 319 333 11 223 298 257 338 304 276 231 193 208 252 251 228 223 237 261 142 228 203 232 283 263 275 259
7 7 4 4 3 1 359 355 354 353 352 352 351 349 347 344 341 345 345 346 355 17 304 264 287 282 292 290 262 239 191 204 224 222 208 197 184 226 213 214 243 301 245 248 268 272 248
6 7 6 7 3 1 359 357 356 357 355 354 352 351 352 350 347 347 3 48 55 320 310 330 354 287 282 256 268 194 202 193 187 220 233 292 242 240 235 246 233 266 289 279 289 273 202
6 8 9 6 4 1 0 360 358 357 355 353 352 349 351 351 354 354 16 24 8 321 258 310 300 20 359 342 292 195 195 218 225 225 232 218 242 243 212 253 256 246 228 249 254 306 278
10 13 10 8 4 2 2 0 358 354 354 352 351 349 350 359 356 359 7 357 351 354 35 284 50 4 352 1 264 194 205 232 268 233 232 233 253 249 261 254 191 257 233 239 275 25 238
15 12 9 5 3 2 0 358 356 353 353 352 351 349 355 2 4 359 344 346 343 17 10 298 48 16 314 258 285 201 215 227 252 263 359 254 285 250 247 229 196 245 6 261 242 246 350
14 11 7 4 2 1 360 358 355 353 351 351 348 347 353 4 359 351 340 330 322 45 266 1 57 1 354 294 225 158 195 230 268 295 240 256 272 239 226 232 205 304 332 297 186 140 291
15 10 6 3 1 0 359 357 354 350 348 349 346 347 355 5 352 352 344 341 35 118 336 356 343 339 324 280 319 191 208 189 341 327 303 307 256 48 87 353 344 121 51 313 8 163 232
14 9 6 4 3 360 358 356 354 352 348 348 345 346 9 2 346 347 344 54 103 20 357 9 321 310 226 35 329 338 342 356 32 352 300 307 330 327 49 223 214 214 182 178 273 219 262
10 10 7 5 3 360 358 356 355 355 351 348 347 344 12 359 357 354 351 54 70 14 334 318 313 324 334 18 354 3 48 5 38 32 353 342 286 331 324 261 129 304 226 225 218 265 95
11 9 7 7 5 2 359 357 355 356 355 349 350 346 4 349 353 355 61 104 114 49 322 292 325 29 320 337 0 356 293 357 342 7 353 305 298 273 317 327 271 218 327 353 247 245 244
9 11 8 6 4 4 0 358 356 354 358 355 352 359 353 351 359 42 86 60 57 22 14 331 342 310 328 349 322 288 6 36 14 333 343 5 251 297 326 282 294 346 310 261 326 252 213
12 8 6 4 2 2 3 2 0 357 356 1 360 23 348 1 46 45 63 39 44 351 15 341 5 352 336 347 294 287 21 60 40 12 358 321 287 279 261 275 270 260 287 310 304 305 272
8 5 4 0 1 1 2 2 1 0 358 357 357 334 354 8 60 2 329 77 71 12 19 7 338 16 23 288 310 297 341 123 20 7 359 347 323 321 311 307 18 23 341 10 339 62 244
4 2 359 359 1 1 360 2 360 2 2 3 10 10 22 53 52 44 6 6 13 10 25 349 284 12 1 330 357 312 312 327 341 346 308 292 239 234 246 320 334 300 312 320 318 270 282
1 357 359 359 0 0 0 1 2 7 12 14 30 46 15 342 353 340 342 30 25 9 349 343 358 57 19 308 311 267 332 328 331 314 354 43 268 288 311 310 304 288 291 298 277 250 233
357 359 357 360 359 360 0 8 8 13 19 44 47 5 350 307 328 11 11 15 33 338 300 315 22 343 344 294 282 317 313 307 249 295 4 355 294 331 301 290 271 295 278 268 273 271 253
356 355 359 1 1 7 11 12 18 20 25 43 39 21 335 332 352 31 351 332 326 328 302 302 311 299 278 279 295 293 283 272 254 267 274 275 262 294 278 331 334 255 13 36 65 47 29
356 359 360 1 8 16 18 16 18 26 23 25 28 16 5 317 3 4 333 351 323 333 297 311 318 306 309 308 299 300 283 269 262 249 225 236 220 268 284 309 243 143 70 44 20 30 53
358 359 3 11 14 14 15 14 16 11 9 13 10 7 15 295 305 336 345 335 330 323 312 309 316 342 333 326 312 305 308 351 336 243 206 209 215 246 256 248 282 314 43 22 18 328 46
357 9 13 14 11 6 7 6 2 6 359 353 9 360 314 293 237 338 328 306 311 306 310 283 315 311 328 283 284 273 327 290 332 322 29 5 221 292 317 289 266 102 354 1 312 292 351
11 10 6 1 357 356 352 351 347 353 348 350 356 340 315 260 279 307 299 286 304 315 279 299 331 315 320 274 284 288 280 282 317 338 337 328 328 299 310 301 260 235 327 326 315 298 330
2 1 358 353 353 350 341 342 349 343 350 344 345 345 336 292 299 264 308 302 300 286 208 285 330 12 1 350 289 289 337 269 341 258 276 270 272 276 266 279 283 356 351 51 302 306 302
352 348 346 345 344 341 344 343 339 332 345 341 329 337 326 295 284 300 300 318 291 294 273 285 252 287 266 296 295 261 297 270 220 288 252 264 219 274 245 262 287 298 306 315 310 302 318
Wind_Speed_850mb
23 24 26 26 26 28 30 32 33 35 37 38 40 40 41 42 42 42 42 42 44 44 44 42 39 34 25 14 22 22 16 19 19 14 8 3 6 5 5 7 18 13 8 25 38 42 48
22 24 25 26 28 30 32 34 36 37 39 40 42 44 45 46 47 46 46 45 43 44 45 44 42 33 19 9 24 18 20 23 22 15 7 5 5 9 12 11 5 10 26 31 41 51 28
23 24 26 28 30 32 33 36 39 41 41 43 45 47 48 49 50 50 49 47 46 46 44 43 42 24 26 33 26 20 20 19 19 15 11 13 20 12 11 10 17 21 19 18 24 18 16
22 25 28 30 32 35 37 39 41 43 46 47 49 51 51 52 53 51 50 47 46 45 44 40 27 16 15 15 18 29 22 17 18 20 19 19 19 15 12 15 15 7 3 8 10 11 7
25 27 29 31 34 35 37 40 43 46 48 51 53 54 55 54 52 51 47 45 39 36 35 18 7 10 17 8 13 16 20 19 13 12 13 7 10 10 8 4 7 7 7 12 15 14 10
24 26 29 31 33 35 39 43 45 48 51 53 55 56 55 54 52 51 43 35 20 18 14 6 7 11 7 9 17 13 15 20 17 9 10 12 12 4 4 6 8 10 9 11 16 3 5
25 27 28 30 34 38 41 45 48 51 54 56 58 58 55 51 49 40 38 20 11 5 12 15 17 24 47 23 13 9 15 25 21 13 9 15 6 17 20 24 13 12 10 13 15 20 11
24 26 28 32 35 39 43 46 49 52 55 57 59 59 55 50 36 35 29 16 14 10 26 19 8 13 14 13 6 11 21 14 14 12 11 7 18 30 19 23 19 12 13 20 14 18 9
22 25 30 33 38 41 44 47 50 53 55 59 61 60 54 47 23 36 29 27 12 4 8 17 4 3 9 6 4 20 22 12 12 12 17 18 21 4 14 15 16 13 13 11 17 9 8
23 27 30 35 38 41 43 46 50 53 57 60 62 60 55 45 17 26 17 25 13 5 8 5 4 5 9 5 3 8 22 10 7 16 14 17 34 31 23 16 13 13 16 19 7 7 5
25 27 31 34 37 41 46 50 52 55 58 60 60 56 45 42 25 34 34 22 11 3 9 10 2 4 11 7 9 6 15 10 13 14 8 16 8 9 13 13 9 13 1 6 5 6 5
22 26 29 34 38 43 48 52 56 59 60 59 58 51 39 38 31 35 30 17 5 11 9 9 8 18 18 15 7 7 6 17 18 7 11 23 13 9 14 7 7 9 8 12 5 7 3
21 25 30 35 41 47 51 54 56 59 61 57 54 44 34 41 41 32 25 7 10 9 12 16 12 18 15 10 7 8 7 2 6 10 7 11 10 1 5 5 4 4 5 6 5 1 12
21 25 30 36 41 46 51 55 58 59 60 56 52 35 26 43 33 27 16 8 7 6 9 10 13 27 7 20 12 16 14 7 20 12 7 6 14 2 3 6 6 10 10 6 7 6 6
20 26 31 37 42 48 54 58 60 60 58 55 47 24 23 44 28 20 6 10 2 7 8 14 20 9 10 14 11 15 7 11 11 18 7 10 10 20 26 7 3 7 5 7 6 7 2
22 26 31 36 42 49 55 59 62 61 58 55 39 17 16 41 23 15 9 10 8 7 9 6 5 10 8 15 14 17 6 11 14 17 9 9 12 13 13 12 12 10 3 7 3 6 9
22 28 33 38 43 48 54 59 63 64 59 52 26 11 22 27 15 14 7 5 6 19 21 7 7 10 8 10 10 8 9 6 10 16 19 12 5 11 16 6 10 7 7 6 3 4 7
24 28 33 39 45 50 54 58 62 64 60 51 21 7 36 23 15 10 5 3 5 14 25 10 9 7 7 13 10 7 9 5 23 18 9 5 8 9 17 33 35 26 16 5 4 9 4
22 28 34 39 46 53 56 58 59 58 55 45 17 13 25 25 8 7 12 5 5 10 8 9 8 8 10 7 10 8 12 8 41 19 10 13 6 9 16 5 14 10 12 21 17 0 7
22 27 33 40 46 53 57 58 59 55 47 29 13 8 14 27 18 6 9 7 9 10 3 16 10 7 9 7 10 15 16 14 53 23 34 19 7 11 8 10 18 22 37 26 12 7 13
22 29 37 42 47 52 55 57 56 54 47 20 16 9 11 7 10 10 6 9 8 14 17 19 4 10 11 7 19 6 26 22 22 31 16 6 9 7 19 24 25 34 40 40 23 23 15
24 30 35 40 46 50 52 52 52 52 47 50 12 16 18 11 15 11 13 11 11 9 5 10 7 16 12 11 9 22 21 12 12 10 8 13 10 20 29 23 26 29 24 30 28 27 22
25 29 34 40 43 47 48 50 42 49 53 31 28 21 9 10 19 8 5 7 9 18 14 11 22 19 11 19 28 42 50 56 44 23 29 11 5 5 9 12 24 9 9 19 15 27 20
23 28 33 36 37 39 42 43 35 36 43 32 24 18 11 6 11 8 15 22 13 20 17 33 34 10 20 40 40 46 58 55 52 40 36 14 7 9 11 15 7 5 8 19 17 19 22
23 26 29 33 33 33 36 39 40 27 33 35 24 12 6 4 12 13 28 18 34 40 25 35 21 21 31 27 8 12 10 11 16 12 12 32 11 8 7 9 18 19 18 21 17 33 14
21 24 27 28 27 30 31 33 34 35 32 32 27 12 7 6 7 22 19 27 9 8 12 13 41 34 40 5 7 6 9 13 10 13 13 20 9 4 9 13 19 2 12 32 14 23 19
18 21 24 25 28 29 30 31 29 32 36 32 20 26 21 11 14 16 13 12 15 15 7 17 14 32 18 3 9 7 8 7 8 11 10 12 11 9 19 16 14 15 20 35 18 14 46
15 20 24 27 27 30 32 29 30 32 33 31 31 23 25 18 41 11 22 39 48 23 6 21 16 8 6 2 3 5 3 3 5 10 8 9 7 8 7 11 21 14 22 4 24 72 58
17 20 22 26 30 35 30 28 28 34 31 29 35 31 30 29 47 46 36 31 28 38 42 17 17 17 9 1 3 5 10 6 7 12 8 7 8 7 8 13 36 56 40 42 51 52 47
Wind_Direction_850mb
29 25 23 20 15 9 5 3 360 357 354 351 348 343 338 335 331 327 324 322 320 319 317 317 319 318 307 283 264 283 268 242 248 248 241 220 275 272 256 316 317 247 262 277 289 291 293
27 22 17 13 10 7 4 1 358 354 351 347 344 340 337 333 329 326 323 321 318 316 314 314 314 312 287 233 273 265 253 249 239 228 225 247 289 284 289 256 239 271 291 283 285 279 263
21 15 11 9 7 3 0 359 357 353 347 346 343 339 335 331 327 324 321 318 312 310 308 308 308 298 270 277 257 264 264 240 228 225 207 247 244 255 313 287 271 294 297 301 265 244 220
16 11 9 7 5 2 0 358 355 351 350 346 343 341 337 333 329 326 324 315 313 307 304 304 301 276 258 280 258 274 272 227 228 226 225 228 246 245 228 283 314 262 197 309 283 188 202
15 10 6 5 5 2 359 357 354 352 349 347 345 341 338 335 333 329 328 320 318 306 303 314 289 275 275 280 260 276 257 224 257 241 245 260 263 237 243 192 319 247 238 216 301 193 156
11 6 6 5 3 0 358 356 354 352 350 348 346 344 342 339 337 335 336 335 333 319 333 11 223 298 257 338 304 276 231 193 208 252 251 228 223 237 261 142 228 203 232 283 263 275 259
7 7 4 4 3 1 359 355 354 353 352 352 351 349 347 344 341 345 345 346 355 17 304 264 287 282 292 290 262 239 191 204 224 222 208 197 184 226 213 214 243 301 245 248 268 272 248
6 7 6 7 3 1 359 357 356 357 355 354 352 351 352 350 347 347 3 48 55 320 310 330 354 287 282 256 268 194 202 193 187 220 233 292 242 240 235 246 233 266 289 279 289 273 202
6 8 9 6 4 1 0 360 358 357 355 353 352 349 351 351 354 354 16 24 8 321 258 310 300 20 359 342 292 195 195 218 225 225 232 218 242 243 212 253 256 246 228 249 254 306 278
10 13 10 8 4 2 2 0 358 354 354 352 351 349 350 359 356 359 7 357 351 354 35 284 50 4 352 1 264 194 205 232 268 233 232 233 253 249 261 254 191 257 233 239 275 25 238
15 12 9 5 3 2 0 358 356 353 353 352 351 349 355 2 4 359 344 346 343 17 10 298 48 16 314 258 285 201 215 227 252 263 359 254 285 250 247 229 196 245 6 261 242 246 350
14 11 7 4 2 1 360 358 355 353 351 351 348 347 353 4 359 351 340 330 322 45 266 1 57 1 354 294 225 158 195 230 268 295 240 256 272 239 226 232 205 304 332 297 186 140 291
15 10 6 3 1 0 359 357 354 350 348 349 346 347 355 5 352 352 344 341 35 118 336 356 343 339 324 280 319 191 208 189 341 327 303 307 256 48 87 353 344 121 51 313 8 163 232
14 9 6 4 3 360 358 356 354 352 348 348 345 346 9 2 346 347 344 54 103 20 357 9 321 310 226 35 329 338 342 356 32 352 300 307 330 327 49 223 214 214 182 178 273 219 262
10 10 7 5 3 360 358 356 355 355 351 348 347 344 12 359 357 354 351 54 70 14 334 318 313 324 334 18 354 3 48 5 38 32 353 342 286 331 324 261 129 304 226 225 218 265 95
11 9 7 7 5 2 359 357 355 356 355 349 350 346 4 349 353 355 61 104 114 49 322 292 325 29 320 337 0 356 293 357 342 7 353 305 298 273 317 327 271 218 327 353 247 245 244
9 11 8 6 4 4 0 358 356 354 358 355 352 359 353 351 359 42 86 60 57 22 14 331 342 310 328 349 322 288 6 36 14 333 343 5 251 297 326 282 294 346 310 261 326 252 213
12 8 6 4 2 2 3 2 0 357 356 1 360 23 348 1 46 45 63 39 44 351 15 341 5 352 336 347 294 287 21 60 40 12 358 321 287 279 261 275 270 260 287 310 304 305 272
8 5 4 0 1 1 2 2 1 0 358 357 357 334 354 8 60 2 329 77 71 12 19 7 338 16 23 288 310 297 341 123 20 7 359 347 323 321 311 307 18 23 341 10 339 62 244
4 2 359 359 1 1 360 2 360 2 2 3 10 10 22 53 52 44 6 6 13 10 25 349 284 12 1 330 357 312 312 327 341 346 308 292 239 234 246 320 334 300 312 320 318 270 282
1 357 359 359 0 0 0 1 2 7 12 14 30 46 15 342 353 340 342 30 25 9 349 343 358 57 19 308 311 267 332 328 331 314 354 43 268 288 311 310 304 288 291 298 277 250 233
357 359 357 360 359 360 0 8 8 13 19 44 47 5 350 307 328 11 11 15 33 338 300 315 22 343 344 294 282 317 313 307 249 295 4 355 294 331 301 290 271 295 278 268 273 271 253
356 355 359 1 1 7 11 12 18 20 25 43 39 21 335 332 352 31 351 332 326 328 302 302 311 299 278 279 295 293 283 272 254 267 274 275 262 294 278 331 334 255 13 36 65 47 29
356 359 360 1 8 16 18 16 18 26 23 25 28 16 5 317 3 4 333 351 323 333 297 311 318 306 309 308 299 300 283 269 262 249 225 236 220 268 284 309 243 143 70 44 20 30 53
358 359 3 11 14 14 15 14 16 11 9 13 10 7 15 295 305 336 345 335 330 323 312 309 316 342 333 326 312 305 308 351 336 243 206 209 215 246 256 248 282 314 43 22 18 328 46
357 9 13 14 11 6 7 6 2 6 359 353 9 360 314 293 237 338 328 306 311 306 310 283 315 311 328 283 284 273 327 290 332 322 29 5 221 292 317 289 266 102 354 1 312 292 351
11 10 6 1 357 356 352 351 347 353 348 350 356 340 315 260 279 307 299 286 304 315 279 299 331 315 320 274 284 288 280 282 317 338 337 328 328 299 310 301 260 235 327 326 315 298 330
2 1 358 353 353 350 341 342 349 343 350 344 345 345 336 292 299 264 308 302 300 286 208 285 330 12 1 350 289 289 337 269 341 258 276 270 272 276 266 279 283 356 351 51 302 306 302
352 348 346 345 344 341 344 343 339 332 345 341 329 337 326 295 284 300 300 318 291 294 273 285 252 287 266 296 295 261 297 270 220 288 252 264 219 274 245 262 287 298 306 315 310 302 318